THAICOM 4

Last updated on Thu Nov 21 2024 00:02:40 GMT+0000 (Coordinated Universal Time)

1 28786U 05028A 24324.92341146 -.00000361 00000+0 00000+0 0 9990 2 28786 0.0174 313.7497 0002812 283.8094 273.8353 1.00270722 46491
UTC large
Height (km)
Speed (km/s)
/
Latitude / Longitude
Inclination (degrees)
Orbital Period (minutes)
Azimuth
Elevation
Range (km)
Doppler Factor

Next 0 passes for location: London (51.5072 / 0.1276)

Sorry there are no passes over London.